STARLINK-11685 [DTC] (63552 NORAD) Tracking and Keplerian Element Data

This shows tracking and keplerian element data for the satellite.

Feedback or suggestion? Click here.




ElementValue
Catalog63552
NameSTARLINK-11685 [DTC]
Epoch Orbit4074
Epoch Day354.15897313
Epoch Year2025
RAAN272.9052
Inclination42.9997
Eccentricity0.0001481
Argument of Perigee266.0259
Mean Anonmoly94.0439
Mean Motion15.70885925
Decay Rate0.00196529
L11 63552U 25075E 25354.15897313 .00196529 00000+0 14963-2 0 9992
L22 63552 42.9997 272.9052 0001481 266.0259 94.0439 15.70885925 40748



Live tracking and technical data element details for STARLINK-11685 [DTC] (NORAD 63552). STARLINK-11685 [DTC] can be tracked NOW for your location showing map with azimuth and elevation plus other details from your city location.







IsCatalogInMostPopularTable: catalog: 63552, numindb: 2
Update: records affected: 1



GetName: 63552 STARLINK-11685 [DTC]

Hit Count: updated at: Sat, 07 Feb 2026 08:20:11 GMT